sat.trackr.live / text

‹ back to catalog

STARLINK-33947

NORAD 63787 · 2025-091N

PAYLOAD ACTIVE UNKNOWN

§ Identity

Operator
Country
US
Launch date
2025-05-02
Launch site
AFETR
Launch vehicle
Mass (kg)
RCS (m²)

Purposes: comms

External: N2YO · Heavens-Above · Gunter

§ Orbital elements

Epoch: 2026-09-20T15:28:00.403968Z

Period
94.27 min
Inclination
42.9994°
Eccentricity
0.0000371
Mean motion
15.27590080 rev/d
Perigee alt
482.8 km
Apogee alt
483.3 km
Semi-major
6,861.2 km
B*
3.4914e-4
RAAN
31.9073°
Arg perigee
266.4777°
Mean anomaly
93.6032°
Rev number
7,871

§ Raw data

STARLINK-339471 63787U 25091N   26263.64444912  .00009361  00000+0  34914-3 0  99932 63787  42.9994  31.9073 0000371 266.4777  93.6032 15.27590080 78716

JSON: /api/v1/satellites/63787 · /tle

For live sub-satellite position, see the globe view (requires WebGL).

§ Visibility from observer

Set your observer location to see the next 7 days of passes ≥ 10°. The values pass through the URL so the page stays shareable.

No JS? Fill the form by hand. The geolocation button needs JavaScript.